Location: Antioch Church
(34.9543°N, 88.5145°W)
Time: 17:19:59
(UTC+00:00)

Envisat - Pass Details

Date: 11 December 2019
Orbit: 764 x 766 km, 98.1° (Epoch: 21 January)

Event Time Altitude Azimuth Distance (km) Brightness Sun altitude
Rises 00:13:11 0° 176° (S) 3,216 6.4 -18.0°
Reaches altitude 10° 00:15:31 10° 181° (S) 2,294 5.7 -18.5°
Maximum altitude 00:20:29 57° 259° (W) 895 3.6 -19.5°
Drops below altitude 10° 00:25:30 10° 339° (NNW) 2,309 5.6 -20.5°
Sets 00:27:51 0° 343° (NNW) 3,239 6.3 -20.9°
